Orbital Elements at Epoch 2459000.5 (2020-May-31.0) TDB
Reference: JPL 17 (heliocentric ecliptic J2000)
Element | Value | Uncertainty (1-sigma) | Units |
e | .1901594815383043 | 6.3049e-08 | |
a | 2.811233284899103 | 1.4753e-08 | au |
q | 2.276650620959465 | 1.8049e-07 | au |
i | 9.045602029593498 | 6.2237e-06 | deg |
node | 49.10242167701504 | 3.1699e-05 | deg |
peri | 355.6022892233161 | 3.6147e-05 | deg |
M | 342.0082141877178 | 1.532e-05 | deg |
tp | 2459086.542996730289 (2020-Aug-25.04299673) | 7.3506e-05 | TDB |
period | 1721.645596834441 4.71 | 1.3552e-05 3.71e-08 | d yr |
n | .2091022685864765 | 1.646e-09 | deg/d |
Q | 3.34581594883874 | 1.7558e-08 | au |
|
| | Orbit Determination Parameters
Additional Information
|